Theta_e
337 339 343 347 349 344 340 340 331 336 334 334 341 344 345 345 344 345 349 344 344 342 344 343 343 344 344 344 344 344 344 342 339 339 335 338 336 336
340 336 344 346 344 344 338 334 333 331 334 334 341 345 348 348 346 345 346 345 342 341 340 340 341 342 342 341 342 343 344 343 341 341 339 336 337 336
341 336 338 341 340 342 338 336 335 334 333 334 339 345 347 349 348 346 345 343 343 344 342 343 343 340 341 340 339 339 342 344 344 343 341 340 336 335
345 341 338 338 338 338 338 336 335 335 335 334 337 339 340 340 341 341 342 342 341 340 340 341 343 344 342 341 339 338 338 339 341 343 343 343 342 341
338 343 340 337 337 336 338 336 335 333 332 330 334 335 332 330 331 333 334 338 339 337 337 337 337 339 340 341 340 340 339 338 337 339 340 341 340 341
341 339 341 340 338 337 337 339 335 333 332 332 330 330 329 329 330 330 331 334 334 334 333 334 336 335 337 338 337 337 338 339 338 337 337 337 337 338
345 345 343 344 340 339 338 339 336 333 332 330 328 328 329 330 331 329 329 330 331 334 333 333 333 334 338 338 337 339 340 338 337 336 336 336 336 336
341 341 341 342 342 341 340 340 338 335 332 327 325 326 327 327 325 322 322 323 328 330 328 327 325 327 330 332 338 341 338 338 338 338 337 336 337 335
333 334 335 336 338 339 340 336 331 327 329 328 324 322 324 322 321 320 318 319 319 317 316 313 312 312 316 322 330 329 331 338 337 335 332 331 336 338
325 326 328 330 331 334 332 328 325 322 324 324 322 320 323 324 322 322 320 319 321 318 318 314 324 329 326 329 328 327 328 328 330 330 330 331 334 337
326 325 325 324 325 327 329 328 326 327 326 327 326 325 324 323 321 320 321 320 321 321 319 324 328 327 325 329 332 331 331 331 332 331 330 331 332 334
319 319 321 322 322 325 327 327 326 324 325 325 324 324 325 325 326 325 324 322 319 320 324 323 324 325 326 325 326 324 324 325 333 334 335 334 333 331
318 319 318 318 317 317 318 319 320 319 320 321 323 323 323 322 322 322 323 324 322 320 325 325 324 326 326 326 326 326 325 327 327 328 330 331 332 331
320 321 321 323 322 321 321 322 322 320 318 318 319 320 320 322 322 322 322 322 323 324 323 324 325 322 325 326 327 326 326 326 325 325 324 325 326 325
324 323 323 323 323 322 322 322 323 323 322 322 322 321 322 323 322 322 322 321 321 322 319 320 320 320 322 325 325 325 325 325 325 325 325 325 325 323
319 318 317 315 316 316 314 316 318 318 317 319 320 318 317 316 316 317 319 316 317 314 311 312 314 312 313 316 321 321 319 324 322 322 323 323 323 322
313 313 312 312 312 311 312 312 312 312 313 313 313 317 317 316 315 314 314 314 313 316 313 311 310 311 312 317 318 310 310 310 310 310 310 314 320 322
311 312 313 312 311 311 311 311 311 311 311 311 312 311 311 312 312 311 310 310 310 311 311 310 309 309 308 309 311 313 312 310 309 310 311 312 312 311
311 311 311 312 312 311 311 311 310 310 310 310 310 310 310 309 310 310 309 309 310 310 310 309 309 310 310 309 309 309 311 307 306 306 308 315 315 308
311 311 310 310 310 310 310 310 310 310 309 309 309 309 309 309 309 308 308 308 309 309 309 307 306 307 308 307 307 308 305 305 305 306 307 307 306 306
311 310 310 310 309 309 308 309 309 310 310 310 309 309 308 308 308 308 308 308 307 308 308 308 308 306 306 307 309 308 307 305 305 305 305 309 309 308
310 310 309 308 308 308 307 308 308 307 306 304 304 303 303 303 303 304 304 305 306 306 306 306 306 306 306 306 307 307 307 306 306 305 304 305 307 307
310 309 309 308 307 307 306 305 304 303 303 303 303 303 303 303 303 303 304 304 304 304 304 305 304 304 304 304 304 304 304 305 305 305 306 306 305 304
Wind_Speed
15 15 16 14 14 15 16 14 6 2 2 5 4 7 14 15 13 12 12 9 11 10 11 11 12 16 18 20 21 22 31 31 32 32 33 30 31 32
12 15 17 16 16 16 14 14 13 9 3 4 4 8 7 10 12 13 10 11 10 11 10 10 10 13 15 15 17 20 26 30 34 34 31 35 32 32
12 14 19 18 17 16 14 13 15 14 7 8 9 7 5 7 10 13 13 13 13 11 11 12 13 13 14 13 12 13 16 21 28 30 32 30 34 35
13 15 18 18 19 17 16 16 15 15 12 11 8 7 6 6 7 8 11 13 13 12 13 14 16 16 18 16 15 14 15 15 17 17 26 28 28 30
14 19 20 19 20 20 19 17 17 16 15 11 9 9 7 6 7 9 10 12 12 13 14 14 15 17 18 18 18 18 19 18 17 18 20 22 23 26
18 19 21 21 23 22 22 20 17 16 16 13 10 8 7 6 6 6 8 8 9 10 11 13 17 19 21 23 23 23 22 20 19 19 21 21 23 26
16 17 19 20 20 22 24 23 21 20 17 13 8 4 4 3 3 2 2 3 4 5 3 4 5 7 10 17 22 24 24 21 18 18 20 20 21 22
11 13 14 14 15 19 21 24 25 27 23 11 6 2 1 2 3 4 5 4 3 3 7 11 10 11 9 9 10 14 18 18 17 17 18 20 22 21
15 16 16 13 13 13 10 9 3 5 5 8 8 9 11 11 10 10 7 6 5 10 12 12 12 14 15 16 14 13 13 18 20 20 20 18 18 20
24 23 21 20 16 7 6 14 19 22 19 17 15 8 7 4 4 7 11 11 10 8 10 4 7 9 14 13 16 18 17 18 20 22 22 21 19 19
28 28 25 22 18 18 20 18 16 12 4 2 12 10 5 4 11 7 10 12 7 10 6 5 7 14 13 10 7 8 11 13 15 20 24 23 19 17
23 22 21 20 20 21 18 12 10 8 6 8 10 8 9 10 6 1 5 4 2 7 5 6 5 5 4 5 14 13 12 7 5 5 7 9 12 14
22 22 21 21 22 20 18 17 14 9 7 5 4 4 3 4 5 4 4 3 5 7 7 6 5 2 1 5 10 10 10 9 8 6 5 8 10 11
18 16 16 15 13 11 12 10 8 6 5 5 4 4 6 5 4 3 2 2 1 1 3 2 2 7 3 3 3 9 9 6 8 8 8 7 8 10
14 14 14 14 14 15 15 14 12 10 8 7 7 9 9 7 4 5 4 4 1 2 6 7 6 6 3 3 4 4 7 6 5 7 7 5 6 8
17 16 17 18 18 17 18 18 17 16 15 14 12 12 12 13 12 11 10 8 5 4 5 7 8 10 6 5 6 3 7 6 11 12 14 11 7 6
14 15 17 17 17 18 17 16 15 15 15 13 11 9 7 7 7 7 5 2 1 3 5 6 8 7 7 5 3 5 5 6 9 12 14 15 19 14
11 12 10 11 10 10 12 13 13 14 13 11 8 8 9 8 8 9 9 7 6 5 6 6 7 8 9 7 4 7 7 10 13 13 13 11 14 13
8 9 9 9 9 9 11 12 11 9 9 11 9 7 7 7 7 8 9 7 7 7 8 7 5 5 6 7 9 9 8 10 14 16 16 10 13 20
7 9 10 11 13 14 15 15 16 14 12 10 10 9 10 10 12 9 5 6 7 7 7 7 9 7 7 9 12 12 13 14 15 13 15 18 21 22
10 11 11 11 13 16 18 18 17 16 15 14 12 12 11 12 10 9 12 16 15 13 14 15 15 16 14 13 10 16 19 21 21 20 19 13 14 14
10 7 9 11 15 19 19 17 15 14 14 14 14 14 14 14 13 13 13 11 13 13 15 17 18 16 13 15 20 22 22 20 24 23 22 22 17 12
7 9 12 16 20 17 12 11 12 14 16 18 19 20 20 17 17 16 13 13 14 15 15 17 17 15 18 18 21 24 24 25 23 22 21 26 27 27
Wind_Direction
279 272 274 268 265 274 272 260 243 278 295 315 299 282 246 246 231 219 235 239 244 256 254 250 250 242 243 246 239 236 226 221 220 220 220 223 223 227
273 272 268 268 271 266 272 262 252 246 253 266 287 290 263 231 213 217 233 237 241 247 254 263 262 248 239 242 246 238 233 229 229 226 231 222 225 227
280 274 270 272 272 259 261 259 251 242 238 268 260 278 260 223 210 212 222 233 236 239 251 262 265 259 247 242 241 238 235 232 238 231 231 229 231 235
288 288 279 271 266 260 255 258 253 244 241 255 256 244 228 212 213 218 220 231 249 249 251 260 262 255 251 248 247 242 244 239 240 238 229 232 235 238
291 289 277 268 264 260 255 253 252 248 246 249 249 242 250 253 244 240 244 242 237 247 256 255 259 261 258 248 251 250 241 237 234 237 240 238 241 244
295 296 281 270 267 260 248 247 244 241 238 239 250 245 247 257 273 263 249 236 235 243 249 258 258 256 253 256 256 250 244 238 239 239 241 245 250 253
310 305 290 280 269 270 266 253 236 230 232 232 231 242 256 255 254 297 327 302 271 254 270 253 281 283 269 256 252 254 232 224 236 241 247 253 256 256
328 322 318 313 299 280 276 265 251 235 221 216 208 187 295 352 350 342 340 350 329 270 308 290 296 292 289 285 256 243 236 231 235 243 252 253 254 254
11 358 347 340 322 310 304 247 175 33 232 170 115 57 58 25 10 357 5 349 313 313 307 294 301 302 290 273 262 253 244 238 234 243 249 257 253 246
48 40 39 26 8 349 127 98 90 89 83 62 71 115 161 157 6 344 337 328 338 343 337 283 353 343 335 298 267 245 246 244 241 244 245 245 247 241
55 51 52 57 64 79 83 99 106 108 115 183 229 206 171 204 224 232 271 297 328 318 329 342 355 352 345 6 335 272 250 242 246 250 250 247 240 232
56 53 50 48 39 46 47 52 87 73 107 147 137 128 120 94 99 179 236 227 275 312 306 334 292 355 331 304 349 349 342 345 287 264 227 214 214 217
58 55 55 51 53 55 56 58 60 58 61 72 124 120 80 20 23 36 76 112 168 244 306 295 291 303 275 305 313 325 355 357 356 354 307 260 242 241
46 41 33 26 26 28 28 24 19 7 347 332 324 312 299 303 303 281 282 306 329 289 309 332 286 322 302 249 267 318 335 337 343 342 334 323 295 276
41 36 32 35 41 45 45 46 37 30 21 4 351 331 318 316 317 307 324 332 233 253 322 318 308 308 324 304 315 330 338 326 343 348 343 321 307 291
58 54 53 53 55 56 49 47 51 50 49 45 40 42 45 50 49 43 37 35 44 28 40 29 16 27 10 309 307 347 351 331 330 329 319 307 299 312
52 53 52 42 41 42 43 44 44 37 36 38 38 38 32 30 33 26 39 11 7 317 341 6 6 358 350 341 338 22 26 3 353 357 343 319 296 294
48 48 46 44 42 38 31 27 24 20 17 17 14 20 20 13 11 12 6 345 343 344 332 340 344 351 355 352 321 311 329 334 338 333 324 317 322 322
30 23 14 4 353 346 345 347 345 351 355 357 347 343 342 335 329 329 332 330 320 316 312 313 336 351 327 319 313 298 296 321 330 328 324 300 297 314
346 344 342 343 344 339 337 332 324 318 312 311 307 292 303 310 314 308 332 328 314 316 315 312 298 282 262 295 296 291 295 307 312 305 303 301 303 307
328 330 336 349 360 357 351 344 341 339 337 332 334 336 332 333 321 318 326 322 321 312 304 296 300 307 290 285 274 280 282 288 289 286 296 289 287 294
344 15 16 359 352 344 339 337 345 356 6 9 8 2 356 352 345 336 330 326 320 313 304 304 308 309 297 283 286 290 291 289 291 279 278 279 274 275
1 356 355 352 347 344 353 4 8 5 358 350 344 339 335 330 326 322 318 315 310 308 307 304 304 300 291 290 289 290 288 284 286 281 278 279 279 277